Wind_Speed
8 10 12 14 16 17 18 20 21 22 22 23 23 23 21 17 13 1 6 6 8 12 14 14 10 10 7 3 4 3 1 3 6 5 4 11 7 13 14 14 10 13 22 17 21
9 11 14 15 17 19 21 23 24 24 24 24 24 22 17 17 8 3 6 8 11 15 13 12 11 11 6 3 3 3 3 7 7 3 4 8 7 12 10 17 14 24 9 14 19
10 12 14 17 18 20 22 25 24 25 25 24 21 19 18 13 4 2 8 11 12 13 11 11 9 8 4 3 3 3 5 4 3 12 15 4 8 11 6 16 7 20 31 26 24
11 13 15 17 19 21 24 24 27 26 26 22 19 16 17 4 2 5 10 13 13 12 10 10 8 6 3 4 4 4 10 10 7 16 9 5 11 10 20 25 33 29 21 30 31
12 14 16 18 20 22 25 24 28 29 22 18 15 20 7 3 3 7 15 15 14 17 15 14 11 4 3 4 6 9 8 14 15 14 20 21 17 16 24 37 37 37 33 21 24
13 15 17 19 22 24 23 27 29 25 20 13 16 11 3 2 5 10 19 16 19 17 14 14 9 12 10 7 6 5 9 12 17 21 21 14 22 9 27 30 29 34 30 29 28
14 16 18 21 23 25 23 29 31 22 16 11 16 10 2 3 8 15 23 19 12 12 15 14 13 10 5 5 15 12 12 16 16 22 12 16 11 10 27 27 31 32 32 28 27
15 18 20 22 25 27 24 30 26 20 7 16 8 10 3 8 11 28 19 19 13 17 15 11 10 15 13 10 5 5 5 7 2 2 7 7 16 10 17 20 23 26 27 26 25
16 18 21 24 27 28 26 29 18 11 11 7 7 4 2 10 27 22 16 18 21 11 12 11 7 5 3 3 4 4 8 11 15 7 8 10 15 7 9 12 20 30 30 27 24
16 18 22 25 28 28 29 28 14 3 7 2 6 4 5 16 30 15 15 20 16 14 9 3 2 2 1 2 5 10 15 15 17 5 9 14 17 12 26 21 23 30 31 29 26
16 19 22 25 28 25 33 19 12 2 6 4 4 3 10 21 23 18 20 22 5 3 3 3 2 6 10 8 14 15 17 23 22 17 16 18 21 19 20 23 19 27 28 27 25
15 19 22 25 26 21 28 16 10 7 7 3 6 9 14 17 11 20 24 12 6 5 4 3 5 7 6 7 13 13 18 22 21 12 11 17 22 19 17 15 23 26 28 28 22
16 18 21 24 21 23 24 22 13 4 3 4 6 7 11 19 4 20 26 13 2 5 7 4 8 10 10 11 10 13 12 18 19 17 10 17 16 15 17 22 29 30 33 27 26
16 18 21 23 12 23 18 21 10 3 4 5 6 5 21 16 3 10 27 7 4 4 7 6 3 11 13 5 7 11 4 10 13 11 5 5 7 12 6 11 10 20 26 28 29
15 18 21 22 16 20 21 17 5 2 5 10 5 7 25 7 12 5 19 7 4 7 3 6 11 13 4 10 14 9 14 16 19 14 12 8 5 6 6 9 15 14 17 15 23
14 17 19 19 16 22 20 12 2 6 5 7 6 9 9 6 7 11 11 13 3 5 4 12 6 1 3 16 13 14 11 20 9 6 4 4 8 3 5 12 17 16 24 22 18
14 16 19 17 17 21 18 5 5 7 6 11 6 7 8 6 6 7 6 8 6 7 15 8 5 4 3 11 8 17 14 4 5 2 4 5 5 5 17 22 19 22 27 26 20
13 16 18 13 19 18 14 5 9 3 5 4 6 11 4 8 4 11 6 6 7 3 5 5 8 7 8 2 9 14 8 4 5 4 7 7 3 4 23 30 32 31 35 23 16
13 15 13 12 18 14 5 6 6 6 3 7 10 4 6 5 2 8 6 4 4 6 7 5 5 3 8 5 9 9 7 16 5 10 4 3 8 2 30 34 36 38 3 10 9
13 14 4 13 14 9 5 2 2 3 3 4 1 2 3 6 9 9 6 3 8 9 10 3 6 3 6 6 4 9 11 5 3 4 4 5 6 10 29 33 34 18 13 17 10
13 7 5 15 9 4 3 5 4 3 1 3 3 4 4 4 3 4 5 5 6 7 10 3 2 8 4 6 13 10 8 4 5 3 3 4 3 11 20 26 27 18 26 30 27
6 3 7 11 4 4 2 5 2 2 1 1 3 3 4 3 3 3 3 2 13 13 8 3 3 5 5 4 8 9 14 5 3 4 3 3 2 19 21 23 26 25 28 33 33
6 4 5 7 3 3 3 2 3 0 1 1 3 3 1 2 3 3 3 5 10 7 5 7 3 5 9 2 8 8 22 18 2 4 12 4 5 16 22 23 38 29 29 30 35
3 2 3 6 7 4 1 2 4 1 3 3 3 2 3 4 2 5 4 4 21 5 14 3 2 2 2 6 3 18 22 21 13 3 5 7 11 23 25 25 28 34 28 30 37
1 0 0 1 3 3 2 2 2 4 4 2 2 2 3 2 4 2 3 6 5 11 8 3 1 3 6 3 0 13 15 20 18 12 6 8 11 17 18 18 23 25 25 36 38
1 3 3 4 2 1 2 2 1 3 3 2 3 3 4 4 6 4 3 3 3 9 7 4 3 4 4 4 4 9 21 18 17 14 6 10 9 17 23 25 28 30 31 36 37
6 5 1 1 2 2 3 4 3 2 5 7 5 3 2 7 9 14 15 15 11 6 7 5 5 5 5 7 5 5 19 11 11 15 6 9 8 15 13 19 28 31 35 34 34
Wind_Direction
22 14 11 8 0 352 348 345 345 338 336 332 332 333 335 335 338 102 17 3 343 330 329 329 324 328 316 278 217 187 97 217 237 221 265 342 4 324 316 299 305 298 304 298 324
16 10 4 360 354 348 347 344 340 335 334 332 330 334 338 336 345 56 4 348 337 329 332 335 333 338 311 269 232 161 184 225 211 202 278 302 300 312 311 308 299 298 274 292 314
9 4 357 352 352 348 346 339 337 336 333 328 331 335 338 336 104 10 353 348 339 330 323 322 319 325 280 282 234 226 222 248 272 283 293 253 285 300 284 282 258 303 307 304 309
356 354 352 350 351 349 342 337 337 335 331 329 331 338 336 359 118 352 353 341 332 334 315 307 312 307 242 237 241 279 247 258 288 295 297 286 297 277 273 270 280 283 272 292 290
347 349 349 351 348 346 342 336 335 332 329 330 331 336 354 92 56 1 346 330 317 318 312 298 304 272 238 253 285 247 260 264 270 289 287 285 261 261 271 277 280 278 282 271 270
342 346 348 349 346 344 341 336 336 333 331 330 338 348 5 101 353 344 343 328 316 310 301 286 274 288 270 232 206 242 273 278 288 281 273 267 268 244 257 270 269 275 264 266 267
341 344 348 347 344 342 344 338 334 334 335 345 340 349 143 93 348 336 336 333 328 312 303 302 287 257 252 274 277 276 282 284 266 263 257 249 264 235 259 271 267 267 274 280 272
340 344 347 343 342 343 345 340 332 335 343 345 350 340 119 360 350 340 332 330 329 313 303 305 282 261 241 261 290 281 255 283 136 181 246 179 272 270 261 256 265 277 283 285 279
340 343 344 342 342 343 344 344 335 343 340 354 1 356 76 350 340 349 344 333 324 333 317 297 290 238 231 257 298 195 267 264 294 239 252 193 266 232 252 272 286 285 281 280 281
338 342 344 342 341 341 345 347 338 358 1 10 1 359 1 331 335 352 354 339 319 325 319 308 259 250 296 132 276 287 287 284 283 282 270 271 256 263 276 271 257 268 274 275 274
337 341 345 342 342 342 346 356 354 312 14 14 354 278 300 334 338 0 358 338 324 302 321 307 295 253 274 244 257 273 281 284 280 283 279 267 262 258 261 257 249 253 260 262 267
334 342 344 343 341 345 346 26 18 321 316 326 332 331 331 326 319 355 355 354 339 318 313 330 256 270 287 283 285 283 282 280 282 284 276 271 268 267 256 250 242 243 254 256 256
336 340 344 344 341 344 357 10 4 327 287 314 329 328 344 328 309 343 354 335 293 318 319 265 274 311 333 314 291 282 271 282 279 307 262 271 277 261 254 245 246 244 246 247 249
334 340 343 348 345 346 353 353 354 41 58 314 350 360 349 338 308 352 354 339 341 311 317 271 286 321 316 307 350 301 312 291 288 306 296 76 298 300 260 245 237 248 249 239 240
330 338 342 349 339 345 343 344 354 352 31 318 334 350 354 57 302 330 354 352 329 311 49 274 310 331 313 327 332 267 292 284 278 270 289 271 236 279 15 10 357 352 323 277 253
327 334 341 339 339 341 344 344 359 39 305 341 355 349 5 334 334 325 356 5 329 324 238 292 298 5 277 317 301 275 294 294 269 243 250 259 198 324 24 345 329 324 322 318 290
324 332 337 333 337 339 342 349 31 93 359 315 331 351 346 313 310 18 353 19 31 358 348 330 334 314 322 329 319 333 335 314 349 8 228 351 190 57 5 353 333 318 308 300 299
323 329 331 325 337 339 340 48 56 239 248 339 331 320 358 344 341 341 8 360 46 6 320 6 329 19 319 262 309 321 332 319 310 313 313 274 304 123 3 346 329 313 295 272 277
319 328 327 327 335 340 353 47 199 205 267 329 322 17 321 346 313 358 12 323 43 360 2 327 281 269 295 311 31 317 337 304 254 259 238 245 358 299 348 340 341 329 171 207 240
322 330 321 333 340 343 66 222 191 234 2 53 325 90 307 322 353 4 351 325 350 3 344 287 295 316 311 10 23 346 348 348 339 316 325 42 61 346 344 337 328 357 48 54 58
328 338 337 340 343 14 107 222 261 278 107 123 248 299 274 303 314 316 298 307 24 316 322 295 185 297 11 9 345 6 358 316 290 272 336 334 88 360 347 332 325 32 56 65 68
335 4 334 348 8 50 113 188 261 322 95 288 229 226 208 313 316 301 304 276 348 329 334 333 273 289 256 270 14 29 2 337 264 28 320 306 75 8 351 338 349 21 44 63 67
318 293 340 3 87 325 316 283 267 80 256 248 276 177 95 265 348 243 288 272 349 334 336 352 331 329 349 334 10 21 11 6 358 354 14 21 329 348 350 355 4 11 33 57 65
322 5 26 65 83 121 106 319 321 284 259 238 267 48 26 1 290 291 306 314 333 340 358 1 295 309 294 263 325 10 17 21 24 26 319 33 337 3 354 357 355 4 26 51 60
29 198 138 316 11 93 104 153 320 5 234 223 294 168 153 332 314 286 286 303 327 4 359 46 325 335 280 235 289 23 20 20 28 8 37 334 26 7 0 349 351 7 30 49 53
214 179 127 99 101 121 285 238 271 303 222 273 173 191 191 190 188 270 349 346 327 332 343 4 317 6 295 309 278 5 22 23 23 12 8 355 37 2 1 9 14 22 32 42 46
205 210 222 83 92 79 219 179 214 158 239 245 256 140 187 234 240 268 268 265 277 307 327 344 327 7 310 334 345 356 10 15 32 30 341 21 330 335 6 17 23 22 33 38 44
Height
1529 1528 1526 1523 1523 1520 1518 1514 1511 1509 1505 1502 1498 1496 1492 1490 1489 1488 1488 1489 1488 1486 1483 1481 1479 1478 1475 1474 1474 1473 1480 1484 1473 1466 1461 1460 1463 1461 1461 1459 1457 1454 1453 1451 1447
1529 1528 1526 1524 1522 1520 1518 1514 1510 1507 1504 1499 1496 1493 1490 1488 1487 1489 1489 1488 1487 1485 1482 1480 1479 1477 1475 1473 1472 1473 1479 1472 1461 1461 1461 1461 1461 1460 1458 1455 1452 1451 1449 1448 1446
1529 1527 1525 1524 1522 1519 1516 1512 1508 1505 1501 1497 1493 1491 1489 1487 1488 1489 1488 1487 1486 1484 1482 1480 1478 1477 1475 1473 1471 1468 1470 1463 1460 1460 1460 1459 1457 1457 1455 1450 1450 1447 1447 1445 1443
1530 1527 1524 1524 1521 1517 1514 1510 1505 1502 1498 1494 1491 1490 1488 1487 1490 1488 1488 1487 1485 1483 1481 1479 1477 1476 1475 1472 1469 1469 1462 1460 1459 1459 1458 1457 1455 1453 1453 1446 1446 1445 1444 1442 1441
1530 1527 1525 1523 1520 1517 1512 1507 1502 1498 1494 1492 1490 1489 1488 1488 1488 1488 1487 1485 1483 1481 1480 1478 1476 1474 1473 1470 1468 1465 1459 1458 1457 1458 1454 1454 1450 1447 1441 1438 1439 1437 1438 1437 1436
1530 1528 1524 1521 1519 1515 1509 1505 1500 1494 1491 1490 1488 1487 1487 1488 1487 1486 1484 1482 1480 1478 1475 1474 1472 1471 1468 1466 1465 1456 1455 1454 1453 1451 1447 1448 1439 1443 1427 1432 1430 1430 1429 1431 1431
1530 1527 1523 1520 1518 1513 1508 1503 1497 1493 1490 1489 1487 1486 1487 1489 1486 1484 1482 1479 1477 1475 1472 1469 1469 1469 1464 1462 1458 1454 1452 1448 1446 1441 1441 1438 1435 1431 1426 1426 1425 1422 1423 1424 1424
1530 1526 1522 1519 1516 1511 1506 1500 1495 1492 1490 1487 1486 1486 1486 1486 1485 1483 1478 1476 1474 1472 1468 1466 1464 1462 1460 1457 1453 1454 1452 1446 1435 1436 1434 1436 1429 1424 1422 1421 1419 1418 1417 1418 1417
1530 1525 1521 1518 1514 1508 1504 1499 1494 1491 1488 1486 1486 1485 1486 1485 1483 1479 1477 1473 1470 1468 1465 1463 1461 1460 1458 1457 1457 1453 1446 1441 1433 1430 1431 1430 1423 1417 1417 1417 1417 1414 1411 1411 1411
1529 1525 1520 1517 1512 1506 1502 1497 1493 1491 1487 1486 1486 1487 1487 1485 1481 1478 1475 1471 1467 1465 1463 1462 1460 1459 1458 1459 1461 1447 1443 1437 1432 1428 1426 1426 1416 1414 1413 1414 1411 1407 1403 1405 1406
1527 1524 1519 1515 1511 1505 1500 1496 1496 1493 1489 1489 1490 1488 1487 1485 1480 1477 1473 1468 1465 1464 1463 1460 1462 1461 1454 1453 1449 1446 1443 1436 1424 1423 1423 1417 1408 1406 1405 1404 1402 1399 1397 1397 1399
1527 1523 1519 1514 1509 1505 1502 1499 1501 1501 1494 1491 1490 1487 1486 1483 1480 1477 1474 1469 1466 1465 1462 1463 1460 1452 1450 1448 1445 1443 1439 1427 1414 1414 1415 1407 1400 1396 1395 1392 1392 1391 1390 1391 1394
1526 1523 1520 1514 1508 1505 1502 1502 1500 1499 1499 1489 1488 1486 1486 1483 1480 1478 1475 1468 1466 1465 1462 1463 1454 1450 1449 1446 1443 1437 1436 1424 1421 1412 1410 1404 1396 1385 1379 1379 1381 1381 1380 1384 1387
1525 1522 1518 1514 1511 1506 1502 1501 1500 1500 1508 1495 1489 1488 1487 1481 1481 1478 1474 1471 1467 1466 1462 1458 1450 1450 1447 1445 1442 1435 1424 1423 1418 1417 1410 1404 1397 1377 1374 1374 1376 1375 1377 1376 1379
1524 1521 1518 1512 1511 1508 1506 1501 1500 1501 1530 1495 1493 1490 1489 1488 1487 1479 1476 1470 1470 1467 1470 1459 1451 1448 1450 1442 1441 1434 1423 1421 1415 1412 1411 1394 1405 1382 1377 1381 1384 1381 1377 1376 1376
1523 1520 1517 1515 1511 1508 1503 1500 1501 1515 1524 1501 1497 1496 1493 1489 1487 1482 1479 1476 1472 1467 1463 1457 1451 1450 1449 1440 1435 1430 1425 1407 1403 1406 1412 1386 1392 1383 1393 1400 1389 1383 1379 1377 1373
1522 1520 1516 1514 1511 1507 1502 1501 1515 1534 1513 1509 1506 1502 1502 1496 1488 1486 1484 1484 1482 1486 1470 1462 1454 1451 1448 1443 1430 1430 1425 1424 1427 1419 1406 1385 1390 1393 1401 1396 1396 1384 1377 1372 1370
1521 1519 1517 1514 1510 1507 1503 1504 1533 1546 1537 1515 1512 1505 1505 1501 1493 1490 1489 1490 1487 1488 1486 1489 1473 1458 1452 1453 1447 1437 1435 1426 1431 1400 1397 1382 1385 1381 1396 1392 1388 1378 1366 1364 1365
1518 1517 1515 1514 1510 1507 1506 1533 1540 1539 1526 1524 1517 1520 1515 1507 1506 1497 1497 1496 1494 1493 1493 1488 1479 1457 1455 1450 1450 1442 1439 1438 1434 1412 1412 1386 1400 1388 1400 1388 1374 1362 1348 1357 1361
1516 1514 1513 1513 1510 1508 1511 1527 1534 1525 1525 1528 1535 1526 1534 1520 1512 1505 1502 1495 1496 1494 1492 1488 1483 1458 1453 1453 1452 1452 1450 1445 1431 1424 1415 1390 1419 1440 1422 1412 1390 1365 1359 1364 1368
1516 1514 1515 1512 1510 1510 1529 1540 1530 1525 1525 1531 1535 1531 1529 1525 1517 1516 1507 1499 1497 1493 1491 1488 1489 1465 1460 1469 1462 1457 1456 1450 1443 1429 1420 1410 1436 1448 1442 1432 1411 1380 1375 1374 1378
1516 1516 1514 1511 1514 1523 1531 1530 1527 1525 1524 1526 1527 1525 1530 1526 1526 1515 1509 1505 1500 1498 1494 1490 1487 1483 1478 1469 1465 1465 1466 1458 1452 1431 1439 1430 1437 1447 1446 1434 1416 1396 1391 1387 1389
1516 1515 1513 1510 1528 1532 1528 1525 1526 1524 1525 1524 1525 1524 1525 1527 1528 1520 1509 1501 1501 1499 1497 1493 1487 1492 1471 1467 1464 1464 1466 1459 1446 1448 1458 1454 1454 1456 1450 1435 1423 1415 1407 1403 1399
1517 1519 1514 1512 1518 1525 1530 1529 1527 1523 1524 1523 1523 1523 1527 1529 1523 1523 1510 1502 1500 1499 1497 1493 1492 1490 1492 1487 1484 1475 1473 1471 1468 1478 1472 1471 1475 1461 1456 1448 1438 1428 1423 1416 1408
1517 1519 1519 1523 1523 1523 1526 1527 1528 1526 1522 1522 1522 1525 1527 1533 1530 1528 1514 1505 1500 1501 1497 1496 1504 1498 1493 1488 1484 1485 1482 1480 1481 1483 1480 1479 1477 1476 1473 1466 1456 1446 1437 1423 1420
1517 1518 1519 1519 1522 1524 1527 1526 1524 1522 1523 1522 1525 1524 1524 1526 1520 1523 1515 1512 1512 1503 1501 1500 1507 1504 1497 1490 1486 1480 1483 1484 1485 1488 1485 1480 1477 1482 1478 1471 1460 1452 1443 1436 1435
1514 1516 1517 1522 1522 1527 1523 1520 1521 1522 1517 1518 1519 1520 1523 1516 1512 1512 1513 1514 1514 1514 1507 1505 1501 1502 1499 1494 1486 1486 1493 1495 1497 1499 1496 1494 1497 1489 1485 1478 1470 1462 1455 1451 1449